Weather History for KY63 - January, 2013

Change the Weather History Date:

Wednesday, January 9, 2013

  Actual Average (KFFM) Record (KFFM)
Temperature  
Mean Temperature 26 °F -  
Max Temperature 32 °F 13 °F 51 °F (2012)
Min Temperature 19 °F -4 °F -34 °F (1977)
Degree Days  
Heating Degree Days 40    
Moisture  
Dew Point 20 °F    
Average Humidity 79    
Maximum Humidity 93    
Minimum Humidity 74    
Precipitation  
Precipitation 0.00 in - - ()
Sea Level Pressure  
Sea Level Pressure 30.11 in    
Wind  
Wind Speed 15 mph (SW)    
Max Wind Speed 24 mph    
Max Gust Speed 30 mph    
Visibility 10 miles    
Events      
Averages and records for this station are not official NWS values.
T = Trace of Precipitation, MM = Missing Value Source: NWS Daily Summary

Daily Weather History Graph

Daily Weather History Graph

Search for Another Location

Airport or City:

Trip Planner

Search our weather history database for the weather conditions in past years. The results will help you decide how hot, cold, wet, or windy it might be!

Date:

Astronomy

Jan. 09, 2013 Rise Set
Actual Time 8:04 AM CST 4:58 PM CST
Civil Twilight 7:30 AM CST 5:32 PM CST
Nautical Twilight 6:53 AM CST 6:09 PM CST
Astronomical Twilight 6:17 AM CST 6:45 PM CST
Moon 5:45 AM CST (1/9) 3:00 PM CST (1/9)
Length of Visible Light 10h 01m
Length of Day
8h 53m
Waning Crescent, 6% of the Moon is Illuminated
Jan 9
Waning Crescent
Jan 11
New
Jan 18
First Quarter
Jan 26
Full
Feb 3
Last Quarter

Hourly Weather History & Observations

Time (CST) Temp. Windchill Dew Point Humidity Pressure Visibility Wind Dir Wind Speed Gust Speed Precip Events Conditions
12:15 AM 28.4 °F 18.0 °F 26.6 °F 93% 29.84 in 10.0 mi SW 12.7 mph - N/A   Clear
12:35 AM 30.2 °F 19.3 °F 26.6 °F 86% 29.85 in 10.0 mi WSW 15.0 mph - N/A   Clear
1:15 AM 32.0 °F 19.2 °F 26.6 °F 80% 29.86 in 10.0 mi WSW 23.0 mph - N/A   Scattered Clouds
1:35 AM 32.0 °F 19.2 °F 26.6 °F 80% 29.86 in 10.0 mi West 23.0 mph - N/A   Scattered Clouds
2:15 AM 30.2 °F 16.8 °F 24.8 °F 80% 29.90 in 10.0 mi West 23.0 mph 29.9 mph N/A   Scattered Clouds
2:35 AM 30.2 °F 17.4 °F 24.8 °F 80% 29.90 in 10.0 mi West 20.7 mph - N/A   Scattered Clouds
3:15 AM 30.2 °F 16.5 °F 23.0 °F 75% 29.93 in 10.0 mi West 24.2 mph 28.8 mph N/A   Mostly Cloudy
3:35 AM 28.4 °F 15.8 °F 23.0 °F 80% 29.94 in 10.0 mi West 18.4 mph - N/A   Scattered Clouds
3:55 AM 28.4 °F 15.1 °F 21.2 °F 74% 29.96 in 10.0 mi WNW 20.7 mph 26.5 mph N/A   Clear
4:15 AM 28.4 °F 14.7 °F 21.2 °F 74% 29.97 in 10.0 mi West 21.9 mph 25.3 mph N/A   Clear
4:35 AM 28.4 °F 15.4 °F 21.2 °F 74% 29.98 in 10.0 mi West 19.6 mph - N/A   Clear
4:55 AM 26.6 °F 14.3 °F 21.2 °F 80% 29.99 in 10.0 mi WNW 16.1 mph 21.9 mph N/A   Clear
5:15 AM 26.6 °F 13.1 °F 19.4 °F 74% 30.01 in 10.0 mi West 19.6 mph 28.8 mph N/A   Clear
5:35 AM 26.6 °F 13.1 °F 19.4 °F 74% 30.02 in 10.0 mi WNW 19.6 mph 27.6 mph N/A   Clear
5:55 AM 26.6 °F 14.7 °F 19.4 °F 74% 30.03 in 10.0 mi WNW 15.0 mph - N/A   Clear
6:15 AM 24.8 °F 12.9 °F 19.4 °F 80% 30.04 in 10.0 mi WNW 13.8 mph - N/A   Clear
6:35 AM 23.0 °F 11.7 °F 19.4 °F 86% 30.06 in 10.0 mi WNW 11.5 mph - N/A   Clear
6:55 AM 21.2 °F 10.1 °F 17.6 °F 86% 30.06 in 10.0 mi WNW 10.4 mph - N/A   Clear
7:15 AM 21.2 °F 10.9 °F 17.6 °F 86% 30.08 in 10.0 mi WNW 9.2 mph - N/A   Clear
7:35 AM 19.4 °F 8.6 °F 15.8 °F 86% 30.10 in 10.0 mi WNW 9.2 mph - N/A   Clear
7:55 AM 19.4 °F 7.9 °F 15.8 °F 86% 30.11 in 10.0 mi WNW 10.4 mph - N/A   Clear
8:15 AM 21.2 °F 11.7 °F 15.8 °F 80% 30.13 in 10.0 mi WNW 8.1 mph - N/A   Clear
8:35 AM 19.4 °F 9.5 °F 14.0 °F 80% 30.14 in 10.0 mi WNW 8.1 mph - N/A   Clear
8:55 AM 19.4 °F 10.4 °F 14.0 °F 80% 30.15 in 10.0 mi WNW 6.9 mph - N/A   Clear
9:15 AM 19.4 °F 9.5 °F 14.0 °F 80% 30.15 in 10.0 mi NW 8.1 mph - N/A   Clear
9:35 AM 19.4 °F 8.6 °F 14.0 °F 80% 30.15 in 10.0 mi WNW 9.2 mph - N/A   Clear
10:15 AM 21.2 °F 10.9 °F 15.8 °F 80% 30.16 in 10.0 mi NW 9.2 mph - N/A   Clear
10:35 AM 23.0 °F 13.1 °F 17.6 °F 80% 30.17 in 10.0 mi NW 9.2 mph - N/A   Clear
10:55 AM 23.0 °F 13.9 °F 17.6 °F 80% 30.17 in 10.0 mi NNW 8.1 mph - N/A   Clear
11:15 AM 23.0 °F 11.1 °F 17.6 °F 80% 30.16 in 10.0 mi NNW 12.7 mph - N/A   Clear
11:55 AM 24.8 °F 15.3 °F 17.6 °F 74% 30.19 in 10.0 mi NW 9.2 mph - N/A   Clear
12:15 PM 24.8 °F 16.1 °F 17.6 °F 74% 30.19 in 10.0 mi NW 8.1 mph - N/A   Clear
12:35 PM 23.0 °F 13.9 °F 17.6 °F 80% 30.22 in 10.0 mi West 8.1 mph - N/A   Clear
12:55 PM 24.8 °F 14.6 °F 19.4 °F 80% 30.23 in 10.0 mi SW 10.4 mph - N/A   Clear
1:15 PM 24.8 °F 15.3 °F 19.4 °F 80% 30.23 in 10.0 mi WSW 9.2 mph - N/A   Clear
1:35 PM 24.8 °F 19.1 °F 19.4 °F 80% 30.22 in 10.0 mi SW 4.6 mph - N/A   Clear
2:15 PM 26.6 °F 17.5 °F 19.4 °F 74% 30.25 in 10.0 mi SW 9.2 mph - N/A   Clear
2:35 PM 26.6 °F 18.2 °F 19.4 °F 74% 30.26 in 10.0 mi SSW 8.1 mph - N/A   Clear
2:55 PM 26.6 °F 18.2 °F 19.4 °F 74% 30.26 in 10.0 mi SSW 8.1 mph - N/A   Clear
3:15 PM 26.6 °F 17.5 °F 19.4 °F 74% 30.26 in 10.0 mi South 9.2 mph - N/A   Clear
3:35 PM 26.6 °F 21.2 °F 19.4 °F 74% 30.25 in 10.0 mi SSE 4.6 mph - N/A   Mostly Cloudy
3:55 PM 26.6 °F 17.5 °F 21.2 °F 80% 30.27 in 10.0 mi South 9.2 mph - N/A   Overcast
4:15 PM 28.4 °F 22.2 °F 21.2 °F 74% 30.25 in 10.0 mi ESE 5.8 mph - N/A   Overcast
4:35 PM 26.6 °F 20.0 °F 21.2 °F 80% 30.24 in 10.0 mi SE 5.8 mph - N/A   Scattered Clouds
4:55 PM 26.6 °F 18.2 °F 19.4 °F 74% 30.23 in 10.0 mi SSE 8.1 mph - N/A   Clear
5:15 PM 24.8 °F 16.1 °F 19.4 °F 80% 30.22 in 10.0 mi SE 8.1 mph - N/A   Clear
5:35 PM 24.8 °F 15.3 °F 19.4 °F 80% 30.21 in 10.0 mi SE 9.2 mph - N/A   Clear
6:15 PM 23.0 °F 11.7 °F 19.4 °F 86% 30.19 in 10.0 mi SE 11.5 mph - N/A   Clear
6:35 PM 23.0 °F 10.6 °F 19.4 °F 86% 30.19 in 10.0 mi SSE 13.8 mph - N/A   Clear
7:15 PM 23.0 °F 11.1 °F 17.6 °F 80% 30.17 in 10.0 mi SE 12.7 mph - N/A   Clear
7:35 PM 24.8 °F 11.9 °F 19.4 °F 80% 30.17 in 10.0 mi SSE 16.1 mph - N/A   Clear
7:55 PM 26.6 °F 14.7 °F 19.4 °F 74% 30.16 in 10.0 mi SE 15.0 mph - N/A   Clear
8:15 PM 24.8 °F 11.9 °F 19.4 °F 80% 30.16 in 10.0 mi SE 16.1 mph - N/A   Clear
8:35 PM 26.6 °F 13.1 °F 19.4 °F 74% 30.15 in 10.0 mi SSE 19.6 mph - N/A   Clear
8:55 PM 26.6 °F 12.7 °F 21.2 °F 80% 30.13 in 10.0 mi SE 20.7 mph - N/A   Clear
9:15 PM 26.6 °F 13.4 °F 21.2 °F 80% 30.12 in 10.0 mi SSE 18.4 mph 26.5 mph N/A   Clear
9:35 PM 28.4 °F 14.4 °F 21.2 °F 74% 30.12 in 10.0 mi SSE 23.0 mph 26.5 mph N/A   Clear
9:55 PM 28.4 °F 15.4 °F 23.0 °F 80% 30.11 in 10.0 mi SSE 19.6 mph 26.5 mph N/A   Clear
10:15 PM 28.4 °F 16.2 °F 23.0 °F 80% 30.10 in 10.0 mi SSE 17.3 mph - N/A   Clear
10:35 PM 28.4 °F 15.8 °F 23.0 °F 80% 30.09 in 10.0 mi SSE 18.4 mph - N/A   Clear
11:15 PM 28.4 °F 15.4 °F 23.0 °F 80% 30.08 in 10.0 mi SSE 19.6 mph - N/A   Clear
11:35 PM 28.4 °F 15.4 °F 23.0 °F 80% 30.08 in 10.0 mi SSE 19.6 mph - N/A   Clear
11:55 PM 28.4 °F 15.4 °F 23.0 °F 80% 30.08 in 10.0 mi SSE 19.6 mph 25.3 mph N/A   Clear